Simultaneous Nadir Overpasses (SNOs) Predictions

Prediction of SNOs between AQUA and NOAA-19 Satellite Orbit:

Table of predicted SNOs for the next 14.0 days since TLE Epoch: 10/5/2012
Index Date (AQUA) Time (AQUA) AQUA Lat,Lon Date (NOAA-19) Time (NOAA-19) NOAA-19 Lat,Lon Distance(km) Time Diff (sec)
1 10/07/2012 10:18:53 -46.03, 57.62 10/07/2012 10:17:48 -45.94, 58.19 44.39 65
2 10/07/2012 11:07:52 47.48,-134.17 10/07/2012 11:08:16 47.45,-133.93 18.80 24
3 10/09/2012 15:03:12 -46.05, -13.45 10/09/2012 15:02:23 -45.93, -12.96 40.20 49
4 10/09/2012 15:51:57 48.33, 155.08 10/09/2012 15:52:36 48.29, 155.29 16.20 39
5 10/11/2012 19:47:31 -46.04, -84.53 10/11/2012 19:46:57 -45.95, -84.09 35.82 34
6 10/11/2012 20:36:01 49.21, 84.36 10/11/2012 20:36:55 49.16, 84.53 13.95 54
7 10/14/2012 00:31:50 -46.01,-155.62 10/14/2012 00:31:31 -45.96,-155.22 31.57 19
8 10/14/2012 01:20:04 50.13, 13.66 10/14/2012 01:21:13 50.08, 13.81 11.85 69
9 10/16/2012 05:16:08 -46.01, 133.30 10/16/2012 05:16:05 -45.94, 133.64 27.11 3
10 10/16/2012 05:58:30 70.44, -42.03 10/16/2012 05:59:43 70.25, -40.88 47.88 73
11 10/18/2012 10:00:13 -46.75, 62.51 10/18/2012 10:00:25 -46.71, 62.81 24.00 12




NCC Satellite Simultaneous Nadir Overpasses (SNOs) Prediction Service
